TimeCST,TemperatureF,Dew PointF,Humidity,Sea Level PressureIn,VisibilityMPH,Wind Direction,Wind SpeedMPH,Gust SpeedMPH,PrecipitationIn,Events,Conditions,WindDirDegrees,DateUTC
12:56 AM,15.1,8.1,74,30.16,-9999.0,Calm,Calm,-,N/A,,Unknown,0,2012-12-22 06:56:00
1:56 AM,19.0,10.9,71,30.16,-9999.0,NE,3.5,-,N/A,,Unknown,40,2012-12-22 07:56:00
2:56 AM,19.9,10.9,68,30.16,-9999.0,Calm,Calm,-,N/A,,Unknown,0,2012-12-22 08:56:00
3:56 AM,19.0,8.1,62,30.14,-9999.0,Calm,Calm,-,N/A,,Unknown,0,2012-12-22 09:56:00
4:56 AM,15.1,9.0,77,30.13,-9999.0,NNW,3.5,-,N/A,,Unknown,330,2012-12-22 10:56:00
5:56 AM,14.0,8.1,77,30.12,-9999.0,NNW,5.8,-,N/A,,Unknown,330,2012-12-22 11:56:00
6:56 AM,14.0,7.0,74,30.12,-9999.0,Calm,Calm,-,N/A,,Unknown,0,2012-12-22 12:56:00
7:56 AM,12.9,7.0,77,30.10,-9999.0,NW,3.5,-,N/A,,Unknown,320,2012-12-22 13:56:00
8:56 AM,21.0,10.9,65,30.07,-9999.0,Variable,3.5,-,N/A,,Unknown,0,2012-12-22 14:56:00
9:56 AM,28.0,17.1,63,30.06,-9999.0,WSW,5.8,-,N/A,,Unknown,250,2012-12-22 15:56:00
10:56 AM,28.9,19.9,69,30.03,-9999.0,WSW,6.9,-,N/A,,Unknown,240,2012-12-22 16:56:00
11:56 AM,32.0,21.0,64,29.99,-9999.0,WSW,6.9,-,N/A,,Unknown,250,2012-12-22 17:56:00
12:56 PM,32.0,19.9,61,29.95,-9999.0,WSW,9.2,-,N/A,,Unknown,240,2012-12-22 18:56:00
1:56 PM,32.0,19.0,59,29.93,-9999.0,WSW,9.2,-,N/A,,Unknown,240,2012-12-22 19:56:00
2:56 PM,30.0,14.0,51,29.94,-9999.0,West,4.6,-,N/A,,Unknown,280,2012-12-22 20:56:00
3:56 PM,25.0,12.0,58,29.94,-9999.0,Calm,Calm,-,N/A,,Unknown,0,2012-12-22 21:56:00
4:56 PM,21.9,12.0,66,29.97,-9999.0,Variable,3.5,-,N/A,,Unknown,0,2012-12-22 22:56:00
5:56 PM,19.9,10.9,68,30.01,-9999.0,NW,8.1,-,N/A,,Unknown,320,2012-12-22 23:56:00
6:56 PM,18.0,8.1,65,30.03,-9999.0,Variable,5.8,-,N/A,,Unknown,0,2012-12-23 00:56:00
7:56 PM,17.1,7.0,65,30.04,-9999.0,Variable,5.8,19.6,N/A,,Unknown,0,2012-12-23 01:56:00
8:56 PM,16.0,6.1,65,30.00,-9999.0,NNW,24.2,35.7,N/A,,Unknown,340,2012-12-23 02:56:00
9:56 PM,15.1,5.0,64,30.02,-9999.0,NNW,23.0,36.8,N/A,,Unknown,340,2012-12-23 03:56:00
10:56 PM,16.0,6.1,65,30.02,-9999.0,NNW,23.0,36.8,N/A,,Unknown,340,2012-12-23 04:56:00
11:56 PM,16.0,5.0,62,30.05,-9999.0,NNW,19.6,33.4,N/A,,Unknown,340,2012-12-23 05:56:00